SWARM B (39451 NORAD) Tracking and Keplerian Element Data

This shows tracking and keplerian element data for the satellite.

Feedback or suggestion? Click here.




ElementValue
Catalog39451
NameSWARM B
Epoch Orbit28121
Epoch Day351.50507893
Epoch Year2018
RAAN83.9587
Inclination87.7527
Eccentricity0.0003888
Argument of Perigee104.8968
Mean Anonmoly255.2708
Mean Motion15.21457415
Decay Rate2.96E-06
L11 39451U 13067A 18351.50507893 .00000296 00000-0 11581-4 0 9991
L22 39451 87.7527 83.9587 0003888 104.8968 255.2708 15.21457415281211

Live tracking and technical data element details for SWARM B (NORAD 39451). SWARM B can be tracked NOW for your location showing map with azimuth and elevation plus other details from your city location.

Track the satellite on the map from your city or location and see movement details for azimuth, elevation, latitude, longitude, range, height, and movement on the map or in text.







IsCatalogInMostPopularTable: catalog: 39451, numindb: 83
Update: records affected: 1



GetName: 39451 SWARM B

Hit Count: updated at: Tue, 18 Dec 2018 21:38:48 GMT